Find Starlink 34332

NORAD ID: 64213 Int'l Des: 2025-117 Owner: SPXS Country: US Constellation: starlink operational
LEOCIRCULAR

現在のビュー

3D地球を読み込み中...

About Starlink 34332

Starlink 34332 (NORAD 64213) is a starlink constellation satellite (v2 mini) launched May 31, 2025 by SPXS of US. It operates in LEO, CIRCULAR orbit with a mass of 575.00 kg.

次回通過

Passes for default location (London). Set your location on the main map for personalized predictions.

高度履歴

Loading altitude history...

軌道要素

1 64213U 25117L 26264.24885456 .00011157 00000-0 34095-3 0 9993
2 64213 53.1588 207.9215 0002113 70.1574 289.9656 15.34392044 74545
Epoch: Sep 21, 2026 • Age: 6 hours

現在のステータス

高度 471.4 km
遠地点 / 近地点 N/A
速度 7.63 km/s
衛星直下点 -27.69°S, 2.25°E
打ち上げ日 May 31, 2025
運用期間 1.3 years
タイプ internet

技術仕様

分類 Payload
質量 575.00 kg
乾燥質量 530.00 kg
長さ 0.30 m
スパン 29.00 m
形状 ? Box + pan
製造者 SPXS
バスタイプ Starlink V2MO
フェーズステータス In Orbit
所有者/国 SPXS/US

Most Searched